Time,TemperatureF,DewpointF,PressureIn,WindDirection,WindDirectionDegrees,WindSpeedMPH,WindSpeedGustMPH,Humidity,HourlyPrecipIn,Conditions,Clouds,dailyrainin,SoftwareType,DateUTC
2013-02-23 00:04:00,38.1,26.7,30.06,SW,225,0.0,-999.0,63,-99.99,,,0.00,Acu-Link.com,2013-02-23 06:04:00,
2013-02-23 00:35:00,37.0,26.4,30.05,SE,135,0.0,-999.0,65,-99.99,,,0.00,Acu-Link.com,2013-02-23 06:35:00,
2013-02-23 00:50:00,36.7,26.8,30.05,SW,225,2.7,-999.0,67,-99.99,,,0.00,Acu-Link.com,2013-02-23 06:50:00,
2013-02-23 01:05:00,36.1,26.3,30.04,ENE,67,0.0,-999.0,67,-99.99,,,0.00,Acu-Link.com,2013-02-23 07:05:00,
2013-02-23 01:20:00,36.0,26.1,30.04,WNW,292,0.0,-999.0,67,-99.99,,,0.00,Acu-Link.com,2013-02-23 07:20:00,
2013-02-23 01:36:00,35.6,26.5,30.04,SW,225,0.0,-999.0,69,-99.99,,,0.00,Acu-Link.com,2013-02-23 07:36:00,
2013-02-23 01:51:00,35.2,26.1,30.04,SW,225,0.0,-999.0,69,-99.99,,,0.00,Acu-Link.com,2013-02-23 07:51:00,
2013-02-23 02:06:00,34.7,26.3,30.04,West,270,0.0,-999.0,71,-99.99,,,0.00,Acu-Link.com,2013-02-23 08:06:00,
2013-02-23 02:21:00,34.3,25.9,30.03,WNW,292,0.0,-999.0,71,-99.99,,,0.00,Acu-Link.com,2013-02-23 08:21:00,
2013-02-23 02:52:00,34.0,25.9,30.01,SSW,202,1.6,-999.0,72,-99.99,,,0.00,Acu-Link.com,2013-02-23 08:52:00,
2013-02-23 03:20:00,33.8,25.7,30.02,SSW,202,0.0,-999.0,72,-99.99,,,0.00,Acu-Link.com,2013-02-23 09:20:00,
2013-02-23 03:36:00,34.0,25.6,30.00,SSW,202,0.0,-999.0,71,-99.99,,,0.00,Acu-Link.com,2013-02-23 09:36:00,
2013-02-23 03:51:00,33.8,25.1,30.00,West,270,1.6,-999.0,70,-99.99,,,0.00,Acu-Link.com,2013-02-23 09:51:00,
2013-02-23 04:06:00,33.4,25.1,30.00,SW,225,0.0,-999.0,71,-99.99,,,0.00,Acu-Link.com,2013-02-23 10:06:00,
2013-02-23 04:21:00,33.3,25.6,29.99,SW,225,0.0,-999.0,73,-99.99,,,0.00,Acu-Link.com,2013-02-23 10:21:00,
2013-02-23 04:36:00,33.1,25.4,29.99,South,180,1.1,-999.0,73,-99.99,,,0.00,Acu-Link.com,2013-02-23 10:36:00,
2013-02-23 04:51:00,33.1,25.4,30.00,West,270,2.7,-999.0,73,-99.99,,,0.00,Acu-Link.com,2013-02-23 10:51:00,
2013-02-23 05:06:00,33.3,25.9,30.00,South,180,1.6,-999.0,74,-99.99,,,0.00,Acu-Link.com,2013-02-23 11:06:00,
2013-02-23 05:22:00,32.7,25.7,30.00,SSW,202,1.6,-999.0,75,-99.99,,,0.00,Acu-Link.com,2013-02-23 11:22:00,
2013-02-23 05:37:00,32.2,25.2,30.00,South,180,1.6,-999.0,75,-99.99,,,0.00,Acu-Link.com,2013-02-23 11:37:00,
2013-02-23 05:52:00,32.0,25.0,30.01,WSW,247,0.0,-999.0,75,-99.99,,,0.00,Acu-Link.com,2013-02-23 11:52:00,
2013-02-23 06:07:00,31.6,25.0,30.02,SW,225,0.0,-999.0,76,-99.99,,,0.00,Acu-Link.com,2013-02-23 12:07:00,
2013-02-23 06:22:00,31.3,24.9,30.02,SSW,202,0.0,-999.0,77,-99.99,,,0.00,Acu-Link.com,2013-02-23 12:22:00,
2013-02-23 06:38:00,31.1,25.4,30.03,WNW,292,0.0,-999.0,79,-99.99,,,0.00,Acu-Link.com,2013-02-23 12:38:00,
2013-02-23 06:53:00,30.9,25.2,30.03,SSW,202,0.0,-999.0,79,-99.99,,,0.00,Acu-Link.com,2013-02-23 12:53:00,
2013-02-23 07:08:00,30.6,24.8,30.02,SSE,157,0.0,-999.0,79,-99.99,,,0.00,Acu-Link.com,2013-02-23 13:08:00,
2013-02-23 07:23:00,30.9,25.2,30.03,West,270,0.0,-999.0,79,-99.99,,,0.00,Acu-Link.com,2013-02-23 13:23:00,
2013-02-23 07:38:00,33.6,27.2,30.03,SW,225,0.0,-999.0,77,-99.99,,,0.00,Acu-Link.com,2013-02-23 13:38:00,
2013-02-23 07:54:00,35.6,27.1,30.04,South,180,0.0,-999.0,71,-99.99,,,0.00,Acu-Link.com,2013-02-23 13:54:00,
2013-02-23 08:09:00,37.9,26.9,30.04,ESE,112,1.6,-999.0,64,-99.99,,,0.00,Acu-Link.com,2013-02-23 14:09:00,
2013-02-23 08:24:00,40.8,26.4,30.05,SSW,202,1.6,-999.0,56,-99.99,,,0.00,Acu-Link.com,2013-02-23 14:24:00,
2013-02-23 08:39:00,40.3,25.4,30.06,SE,135,2.2,-999.0,55,-99.99,,,0.00,Acu-Link.com,2013-02-23 14:39:00,
2013-02-23 08:54:00,36.9,24.3,30.06,ESE,112,2.2,-999.0,60,-99.99,,,0.00,Acu-Link.com,2013-02-23 14:54:00,
2013-02-23 09:10:00,39.9,25.1,30.07,West,270,2.2,-999.0,55,-99.99,,,0.00,Acu-Link.com,2013-02-23 15:10:00,
2013-02-23 09:25:00,44.2,26.8,30.06,SSW,202,2.2,-999.0,50,-99.99,,,0.00,Acu-Link.com,2013-02-23 15:25:00,
2013-02-23 09:40:00,42.6,26.7,30.07,WSW,247,2.2,-999.0,53,-99.99,,,0.00,Acu-Link.com,2013-02-23 15:40:00,
2013-02-23 09:55:00,41.5,25.7,30.07,SW,225,2.2,-999.0,53,-99.99,,,0.00,Acu-Link.com,2013-02-23 15:55:00,
2013-02-23 10:11:00,40.8,25.9,30.07,West,270,3.1,-999.0,55,-99.99,,,0.00,Acu-Link.com,2013-02-23 16:11:00,
2013-02-23 10:26:00,41.7,26.3,30.07,West,270,3.8,-999.0,54,-99.99,,,0.00,Acu-Link.com,2013-02-23 16:26:00,
2013-02-23 10:41:00,44.1,27.6,30.07,SSW,202,2.2,-999.0,52,-99.99,,,0.00,Acu-Link.com,2013-02-23 16:41:00,
2013-02-23 10:56:00,43.9,26.0,30.08,South,180,1.6,-999.0,49,-99.99,,,0.00,Acu-Link.com,2013-02-23 16:56:00,
2013-02-23 11:11:00,44.4,26.0,30.07,SW,225,3.1,-999.0,48,-99.99,,,0.00,Acu-Link.com,2013-02-23 17:11:00,
2013-02-23 11:27:00,45.3,26.3,30.06,SW,225,2.7,-999.0,47,-99.99,,,0.00,Acu-Link.com,2013-02-23 17:27:00,
2013-02-23 11:42:00,46.6,26.4,30.06,SE,135,2.2,-999.0,45,-99.99,,,0.00,Acu-Link.com,2013-02-23 17:42:00,
2013-02-23 11:57:00,47.7,26.8,30.06,NW,315,2.7,-999.0,44,-99.99,,,0.00,Acu-Link.com,2013-02-23 17:57:00,
2013-02-23 12:12:00,49.1,27.0,30.05,WSW,247,3.8,-999.0,42,-99.99,,,0.00,Acu-Link.com,2013-02-23 18:12:00,
2013-02-23 12:28:00,49.5,27.9,30.04,NNE,22,2.7,-999.0,43,-99.99,,,0.00,Acu-Link.com,2013-02-23 18:28:00,
2013-02-23 12:43:00,50.4,27.0,30.03,SW,225,1.6,-999.0,40,-99.99,,,0.00,Acu-Link.com,2013-02-23 18:43:00,
2013-02-23 12:58:00,48.6,26.5,30.02,South,180,1.1,-999.0,42,-99.99,,,0.00,Acu-Link.com,2013-02-23 18:58:00,
2013-02-23 13:13:00,50.7,27.9,29.99,ESE,112,3.1,-999.0,41,-99.99,,,0.00,Acu-Link.com,2013-02-23 19:13:00,
2013-02-23 13:28:00,50.9,26.2,29.98,West,270,2.7,-999.0,38,-99.99,,,0.00,Acu-Link.com,2013-02-23 19:28:00,
2013-02-23 13:44:00,53.2,28.3,29.97,North,0,3.1,-999.0,38,-99.99,,,0.00,Acu-Link.com,2013-02-23 19:44:00,
2013-02-23 13:59:00,54.3,27.9,29.96,WSW,247,2.7,-999.0,36,-99.99,,,0.00,Acu-Link.com,2013-02-23 19:59:00,
2013-02-23 14:14:00,51.8,26.4,29.96,WNW,292,3.1,-999.0,37,-99.99,,,0.00,Acu-Link.com,2013-02-23 20:14:00,
2013-02-23 14:29:00,52.7,27.2,29.95,WNW,292,2.7,-999.0,37,-99.99,,,0.00,Acu-Link.com,2013-02-23 20:29:00,
2013-02-23 14:44:00,51.4,26.7,29.94,WSW,247,4.3,-999.0,38,-99.99,,,0.00,Acu-Link.com,2013-02-23 20:44:00,
2013-02-23 15:00:00,55.0,28.6,29.94,WSW,247,0.0,-999.0,36,-99.99,,,0.00,Acu-Link.com,2013-02-23 21:00:00,
2013-02-23 15:15:00,55.6,28.4,29.93,SE,135,1.1,-999.0,35,-99.99,,,0.00,Acu-Link.com,2013-02-23 21:15:00,
2013-02-23 15:30:00,55.8,29.2,29.93,NNW,337,3.8,-999.0,36,-99.99,,,0.00,Acu-Link.com,2013-02-23 21:30:00,
2013-02-23 15:45:00,54.5,28.8,29.93,South,180,1.1,-999.0,37,-99.99,,,0.00,Acu-Link.com,2013-02-23 21:45:00,
2013-02-23 16:00:00,53.8,27.5,29.93,South,180,2.7,-999.0,36,-99.99,,,0.00,Acu-Link.com,2013-02-23 22:00:00,
2013-02-23 16:16:00,54.7,27.6,29.92,NE,45,1.6,-999.0,35,-99.99,,,0.00,Acu-Link.com,2013-02-23 22:16:00,
2013-02-23 16:31:00,55.2,28.7,29.92,SW,225,1.1,-999.0,36,-99.99,,,0.00,Acu-Link.com,2013-02-23 22:31:00,
2013-02-23 16:46:00,56.1,28.8,29.93,SSW,202,0.0,-999.0,35,-99.99,,,0.00,Acu-Link.com,2013-02-23 22:46:00,
2013-02-23 17:01:00,57.0,29.6,29.91,SE,135,2.2,-999.0,35,-99.99,,,0.00,Acu-Link.com,2013-02-23 23:01:00,
2013-02-23 17:17:00,53.8,28.1,29.91,SW,225,1.6,-999.0,37,-99.99,,,0.00,Acu-Link.com,2013-02-23 23:17:00,
2013-02-23 17:32:00,58.6,28.9,29.90,SSW,202,0.0,-999.0,32,-99.99,,,0.00,Acu-Link.com,2013-02-23 23:32:00,
2013-02-23 17:47:00,57.0,28.9,29.90,WSW,247,1.6,-999.0,34,-99.99,,,0.00,Acu-Link.com,2013-02-23 23:47:00,
2013-02-23 18:02:00,55.0,27.9,29.90,SSW,202,0.0,-999.0,35,-99.99,,,0.00,Acu-Link.com,2013-02-24 00:02:00,
2013-02-23 18:17:00,53.1,28.1,29.91,SSW,202,0.0,-999.0,38,-99.99,,,0.00,Acu-Link.com,2013-02-24 00:17:00,
2013-02-23 18:33:00,51.4,28.5,29.91,SE,135,0.0,-999.0,41,-99.99,,,0.00,Acu-Link.com,2013-02-24 00:33:00,
2013-02-23 18:48:00,50.2,28.0,29.92,SE,135,0.0,-999.0,42,-99.99,,,0.00,Acu-Link.com,2013-02-24 00:48:00,
2013-02-23 19:03:00,48.9,29.1,29.92,South,180,0.0,-999.0,46,-99.99,,,0.00,Acu-Link.com,2013-02-24 01:03:00,
2013-02-23 19:18:00,47.7,29.5,29.93,South,180,0.0,-999.0,49,-99.99,,,0.00,Acu-Link.com,2013-02-24 01:18:00,
2013-02-23 19:33:00,46.8,28.6,29.93,West,270,0.0,-999.0,49,-99.99,,,0.00,Acu-Link.com,2013-02-24 01:33:00,
2013-02-23 19:49:00,45.9,28.8,29.93,NNE,22,0.0,-999.0,51,-99.99,,,0.00,Acu-Link.com,2013-02-24 01:49:00,
2013-02-23 20:04:00,45.1,28.6,29.93,SSE,157,0.0,-999.0,52,-99.99,,,0.00,Acu-Link.com,2013-02-24 02:04:00,
2013-02-23 20:19:00,44.6,29.0,29.93,SSE,157,0.0,-999.0,54,-99.99,,,0.00,Acu-Link.com,2013-02-24 02:19:00,
2013-02-23 20:35:00,45.7,29.1,29.93,South,180,1.6,-999.0,52,-99.99,,,0.00,Acu-Link.com,2013-02-24 02:35:00,
2013-02-23 20:50:00,45.9,29.2,29.92,West,270,1.6,-999.0,52,-99.99,,,0.00,Acu-Link.com,2013-02-24 02:50:00,
2013-02-23 21:05:00,45.3,28.7,29.93,East,90,0.0,-999.0,52,-99.99,,,0.00,Acu-Link.com,2013-02-24 03:05:00,
2013-02-23 21:20:00,45.3,28.7,29.92,ESE,112,2.2,-999.0,52,-99.99,,,0.00,Acu-Link.com,2013-02-24 03:20:00,
2013-02-23 21:35:00,45.9,28.8,29.92,NNE,22,2.2,-999.0,51,-99.99,,,0.00,Acu-Link.com,2013-02-24 03:35:00,
2013-02-23 21:51:00,45.3,28.7,29.91,SE,135,1.1,-999.0,52,-99.99,,,0.00,Acu-Link.com,2013-02-24 03:51:00,
2013-02-23 22:06:00,45.5,28.9,29.91,West,270,2.2,-999.0,52,-99.99,,,0.00,Acu-Link.com,2013-02-24 04:06:00,
2013-02-23 22:21:00,45.5,28.4,29.90,West,270,1.6,-999.0,51,-99.99,,,0.00,Acu-Link.com,2013-02-24 04:21:00,
2013-02-23 22:36:00,44.4,28.4,29.91,East,90,0.0,-999.0,53,-99.99,,,0.00,Acu-Link.com,2013-02-24 04:36:00,
2013-02-23 22:51:00,43.0,28.4,29.91,SSW,202,0.0,-999.0,56,-99.99,,,0.00,Acu-Link.com,2013-02-24 04:51:00,
2013-02-23 23:07:00,42.4,28.7,29.90,SSE,157,0.0,-999.0,58,-99.99,,,0.00,Acu-Link.com,2013-02-24 05:07:00,
2013-02-23 23:22:00,41.4,28.5,29.89,East,90,0.0,-999.0,60,-99.99,,,0.00,Acu-Link.com,2013-02-24 05:22:00,
2013-02-23 23:37:00,40.3,28.7,29.89,West,270,0.0,-999.0,63,-99.99,,,0.00,Acu-Link.com,2013-02-24 05:37:00,
2013-02-23 23:52:00,39.6,28.8,29.90,West,270,0.0,-999.0,65,-99.99,,,0.00,Acu-Link.com,2013-02-24 05:52:00,